www.pogodaiklimat.ru

Погода и климат >> Архив погоды >> Индия >> Мадхья-Прадеш >> Гуна


ПОГОДА в Гуне

  • Прогноз погоды в Гуне
  • Монитор погоды в Гуне

АРХИВ ПОГОДЫ в Гуне

Время (UTC), дата Ветер
(напр.,м/с)
 
Видим.   Явления Облачность Т
(С)
Тd
(С)
f
(%)
Тe
(С)
Тes
(С)
Комфортность P
(гПа)
Po
(гПа)
Тmin
(С)
Tmax
(С)
R
(мм)
R24
(мм)
S
(см)
12 14.05 СЗ 1 4000 м 4/0
[Ci sp]
+38.6 +10.2 18 +37 +40 очень
жарко
999.9 948.9 +40.2
15 14.05 СЗ 1 4000 м 5/0
[Ac trans]
+32.8 +13.3 31 +34 +34 очень
жарко
1002.2 950.1
18 14.05 СЗ 1 4000 м ясно +29.8 +13.4 37 +31 +31 жарко 1003.6 950.9
21 14.05 штиль 0 4000 м ясно +27.8 +13.3 41 +30 +30 жарко 1003.3 950.3
00 15.05 штиль 0 4000 м ясно +26.0 +13.5 46 +28 +28 жарко 1004.8 951.4
03 15.05 штиль 0 4000 м ясно +32.0 +14.8 35 +34 +45 душно 1005.6 953.2 +24.6
06 15.05 СЗ 2 4000 м 4/0
[Ci sp]
+38.6 +13.4 22 +39 +58 опасность
солнечного
удара
1004.2 952.9
09 15.05 СЗ 1 4000 м 5/0
[Ac trans]
+40.2 +11.5 18 +39 +53 опасность
солнечного
удара
1001.6 950.7
12 15.05 СЗ 1 4000 м 5/0
[Ac trans]
+39.6 +12.0 19 +39 +41 очень
жарко
1000.1 949.2 +40.6
15 15.05 штиль 0 4000 м ясно +34.8 +14.5 30 +36 +36 душно 1001.9 950.1
18 15.05 СЗ 1 4000 м 4/0
[Ac trans]
+30.8 +15.3 39 +33 +33 душно 1004.4 951.8
21 15.05 СЗ 1 4000 м 5/0
[Ci sp]
+29.6 +16.1 44 +33 +33 душно 1004.6 951.8
00 16.05 штиль 0 4000 м ясно +28.6 +14.4 42 +31 +31 жарко 1004.8 951.8
03 16.05 З 1 4000 м 3/0
[Ac trans]
+32.6 +14.4 33 +34 +42 очень
жарко
1006.5 954.1 +26.8
06 16.05 СЗ 2 4000 м 4/0
[Ac trans]
+38.4 +13.5 23 +39 +55 опасность
солнечного
удара
1003.2 952.0
09 16.05 СЗ 1 4000 м 5/0
[Ac trans]
+39.4 +6.1 13 +37 +50 очень
жарко
1003.0 951.9
12 16.05 СЗ 1 4000 м 4/0
[Ac trans]
+39.0 +10.3 18 +38 +40 очень
жарко
1001.8 950.7 +40.8
15 16.05 СЗ 1 4000 м 4/0
[Ac trans]
+34.4 +13.9 29 +35 +35 очень
жарко
1003.6 951.7
18 16.05 СЗ 1 4000 м 5/0
[Ac trans]
+29.8 +13.4 37 +31 +31 жарко 1005.3 952.5
21 16.05 СЗ 1 4000 м ясно +28.6 +14.0 41 +31 +31 жарко 1004.8 951.8
00 17.05 штиль 0 4000 м ясно +26.6 +15.1 49 +29 +29 жарко 1005.9 952.5
03 17.05 СЗ 0 н/о +31.0 +16.8 43 +35 +45 очень
душно
1007.1 954.4 +24.6
06 17.05 З 1 4000 м ясно +37.0 +14.6 26 +38 +65 опасность
солнечного
удара
1006.0 954.4
09 17.05 СЗ 1 4000 м ясно +40.0 +8.7 15 +38 +59 опасность
солнечного
удара
1002.7 951.7
12 17.05 СЗ 2 4000 м 8/4 600 м
[Sc Ac trans]
+38.4 +12.5 21 +38 +39 очень
жарко
1000.8 949.7 +40.5
15 17.05 З 2 4000 м 8/4 600 м
[Sc Ac trans]
+35.0 +14.3 29 +36 +36 очень
жарко
1002.9 951.1
18 17.05 З 1 4000 м 8/4 600 м
[Sc Ac trans]
+28.8 +16.3 47 +32 +32 душно 1005.7 952.7
21 17.05 штиль 0 4000 м 3/0
[Ac trans]
+26.4 +14.0 46 +29 +29 жарко 1005.9 952.5
00 18.05 СЗ 1 4000 м ясно +26.0 +13.5 46 +28 +28 жарко 1006.2 952.7
03 18.05 СЗ 1 4000 м ясно +29.4 +15.0 42 +32 +41 душно 1017.2 963.7 +24.6
06 18.05 СЗ 2 4000 м ясно +35.0 +12.4 26 +35 +56 опасность
солнечного
удара
1006.3 954.3
09 18.05 З 2 4000 м 3/0
[Ac trans]
+37.6 +12.7 23 +38 +51 опасность
солнечного
удара
1003.5 952.1
12 18.05 СЗ 2 4000 м ясно +36.8 +11.8 22 +36 +39 очень
жарко
1002.4 950.9 +38.2
15 18.05 штиль 0 4000 м 3/0
[Ci sp]
+32.2 +13.3 32 +33 +33 жарко 1004.2 951.9
18 18.05 штиль 0 4000 м ясно +29.8 +13.4 37 +31 +31 жарко 1005.6 952.8
21 18.05 штиль 0 4000 м ясно +27.2 +14.6 46 +30 +30 душно 1005.1 951.9
00 19.05 штиль 0 4000 м ясно +25.8 +14.9 51 +29 +29 душно 1005.8 952.3
03 19.05 штиль 0 4000 м ясно +32.0 +14.8 35 +34 +45 душно 1006.2 953.8 +24.5
06 19.05 СЗ 1 4000 м 6/0
[Ac trans]
+36.8 +12.4 23 +37 +52 опасность
солнечного
удара
1005.9 954.3
09 19.05 СЗ 1 4000 м 5/0
[Ac trans]
+38.8 +10.5 18 +37 +52 опасность
солнечного
удара
1003.6 952.4
12 19.05 З 1 4000 м 4/0
[Ac trans]
+38.2 +11.1 20 +37 +40 очень
жарко
1002.5 951.3 +39.4
15 19.05 штиль 0 4000 м ясно +33.4 +12.8 29 +34 +34 очень
жарко
1004.5 952.4
18 19.05 штиль 0 4000 м ясно +29.6 +11.8 33 +30 +30 жарко 1006.8 953.9
21 19.05 штиль 0 4000 м ясно +27.6 +11.6 37 +29 +29 жарко 1006.1 952.9
00 20.05 штиль 0 4000 м ясно +26.0 +11.2 40 +27 +27 жарко 1006.8 953.3
03 20.05 ЮВ 1 4000 м ясно +34.2 +12.6 27 +34 +44 очень
жарко
1007.1 955.0 +24.8
06 20.05 ЮЗ 1 4000 м ясно +39.0 +8.5 16 +37 +62 опасность
солнечного
удара
1006.2 954.9
09 20.05 СЗ 1 4000 м 4/0
[Ac trans]
+41.2 +8.1 14 +39 +55 опасность
солнечного
удара
1002.9 952.1
12 20.05 СЗ 1 4000 м 3/0
[Ac trans]
+40.4 +8.9 15 +38 +41 очень
жарко
1001.6 950.8 +41.6
15 20.05 штиль 0 4000 м ясно +34.4 +11.4 25 +34 +34 очень
жарко
1003.5 951.6
18 20.05 штиль 0 4000 м 5/0
[Ci sp]
+32.2 +10.9 27 +32 +32 жарко 1004.9 952.6
21 20.05 штиль 0 4000 м ясно +29.2 +11.6 34 +30 +30 жарко 1003.9 951.1
00 21.05 штиль 0 4000 м ясно +27.6 +12.1 38 +29 +29 жарко 1005.1 952.0
03 21.05 штиль 0 4000 м ясно +35.4 +11.0 23 +35 +46 очень
жарко
1004.8 953.0 +25.8
06 21.05 ЮЗ 1 4000 м ясно +40.2 +8.5 15 +38 +65 опасность
солнечного
удара
1003.9 952.9
09 21.05 ЮЗ 1 4000 м 4/0
[Ac trans]
+42.0 +8.5 13 +40 +56 опасность
солнечного
удара
1001.3 950.7

 

Местоположение метеостанции Гуна (Мадхья-Прадеш, Индия): широта 24.65 долгота 77.32 высота над уровнем моря 478 м.

В архиве по умолчанию представлена погода в Гуне за последнюю неделю. Архивные данные за месяц целиком и за предыдущие месяцы, начиная с января 2011 года, Вы можете получить, выбрав интересующий диапазон дат из раскрывающегося списка и нажав кнопку "Ввод!".


*Определитесь, кто Вы:
робот инопланетянин человек

Внимание! Время в таблицах - всемирное. Для получения местного времени необходимо прибавить поправку, которая равна 5.5 ч.

Смотрите также архив погоды в соседних городах и на ближайших метеорологических станциях:

Погода в Шивпури (Мадхья-Прадеш, Индия) (83 км)
Погода в Раджгархе (Мадхья-Прадеш, Индия) (94 км)
Погода в Шеопуре (Мадхья-Прадеш, Индия) (130 км)
Погода в Бхопале (Мадхья-Прадеш, Индия) (152 км)
Погода в Тикамгархе (Мадхья-Прадеш, Индия) (153 км)
Погода в Райсене (Мадхья-Прадеш, Индия) (157 км)
Погода в Джханси (Уттар-Прадеш, Индия) (158 км)
Погода в Коте (Раджастхан, Индия) (158 км)
Погода в Шаджапуре (Мадхья-Прадеш, Индия) (170 км)
Погода в Сагаре (Мадхья-Прадеш, Индия) (170 км)

Пояснения к столбцам:

Ветер - указаны скорость ветра в м/с - средняя за 10 мин, порывы в срок и между сроками (в фигурных скобках) и направление, откуда дует ветер: С - северный, СВ - северо-восточный, В - восточный, ЮВ - юго-восточный, Ю - южный, ЮЗ - юго-западный, З - западный, СЗ - северо-западный.
Видимость - горизонтальная дальность видимости в метрах или километрах. При видимости от 1 до 10 км при отсутствии осадков обычно наблюдается дымка, при ухудшении видимости до 1 км и менее - туман. В сухую погоду видимость может ухудшаться дымом, пылью или мглою.
Явления - указаны атмосферные явления, наблюдавшиеся в срок или в последний час перед сроком; фигурными скобками обозначены явления, наблюдавшиеся между сроками (за 1-3 часа до срока); квадратными скобками обозначены град или гололедные отложения с указанием их диаметра в мм.
Облачность - указаны через наклонную черту общая и нижняя облачность в баллах и высота нижней границы облаков в метрах; квадратными скобками обозначены формы облаков: Ci - перистые, Cs - перисто-слоистые, Cc - перисто-кучевые, Ac - высококучевые, As - высокослоистые, Sc - слоисто-кучевые, Ns - слоисто-дождевые, Cu - кучевые, Cb - кучево-дождевые. Подробнее классификацию облаков см. в Атласе облаков (PDF).
T - Температура воздуха - температура, измеренная на высоте 2 м над землей.
Td - Температура точки росы - температура, при понижении до которой содержащийся в воздухе водяной пар достигнет насыщения.
f - Относительная влажность воздуха - влажноcть воздуха, измеренная на высоте 2 м над землей.
Te - Эффективная температура - температура, которую ощущает одетый по сезону человек в тени. Характеристика душности погоды. При расчете учитывается влияние влажности воздуха и скорости ветра на теплоощущения человека.
Tes - Эффективная температура на солнце - температура, которую ощущает человек, с поправкой на солнечный нагрев. Характеристика знойности погоды. Зависит от высоты солнца над горизонтом, облачности и скорости ветра. Ночью, в пасмурную погоду, а также при ветре 12 м/с и более поправка равна нулю.
P - Атмосферное давление - приведенное к уровню моря атмосферное давление.
Po - Атмосферное давление - измеренное на уровне метеостанции атмосферное давление.
Tmin - Минимальная температура - минимум температуры воздуха на высоте 2 м над землей.
Tmax - Максимальная температура - максимум температуры воздуха на высоте 2 м над землей.
R - Количество осадков - Количество выпавших осадков за период времени, мм. При наведении курсора мыши на число - период времени, за который выпало указанное количество осадков.
R24 - Количество осадков - Количество выпавших осадков за 24 часа, мм.
S - Снежный покров - Высота снежного покрова, см. При наведении курсора мыши на число - состояние снежного покрова и степень покрытия местности в баллах.